When you browse on this site, cookies collect data to enhance your experience and personalize the content and advertising you see.
Visit our Privacy Policy to learn more. By continuing to use the site, you agree to this use of cookies and data.
  • In Germany
  • List of Countries
  • For 7 days
  • Water Temperature
  • Satellite Maps
  • Weather Map
  • Weather Widgets
  • user-avatar
    Login

    Hourly Weather Newcastle

    Today, 26 March, Tuesday

    Time Temperature Precipitation Wind Pressure Humidity
    00:00 +22°C° 0 mm 3 mps 759 mmHg 79%
    01:00 +22°C° 0 mm 3 mps 759 mmHg 79%
    02:00 +22°C° 0 mm 3 mps 759 mmHg 76%
    03:00 +22°C° 0 mm 3 mps 759 mmHg 74%
    04:00 +22°C° 0 mm 3 mps 759 mmHg 80%
    05:00 +22°C° 0 mm 4 mps 759 mmHg 75%
    06:00 +21°C° 0 mm 4 mps 760 mmHg 69%
    07:00 +21°C° 0 mm 4 mps 760 mmHg 63%
    08:00 +22°C° 0 mm 4 mps 760 mmHg 55%
    09:00 +23°C° 0 mm 4 mps 761 mmHg 47%
    10:00 +26°C° 0 mm 4 mps 761 mmHg 39%
    11:00 +27°C° 0 mm 4 mps 761 mmHg 36%
    12:00 +28°C° 0 mm 3 mps 761 mmHg 33%
    13:00 +29°C° 0 mm 3 mps 761 mmHg 30%
    14:00 +28°C° 0 mm 4 mps 761 mmHg 32%
    15:00 +27°C° 0 mm 4 mps 761 mmHg 33%
    16:00 +27°C° 0 mm 5 mps 761 mmHg 34%
    17:00 +25°C° 0 mm 5 mps 762 mmHg 43%
    18:00 +21°C° 0 mm 5 mps 762 mmHg 51%
    19:00 +19°C° 0 mm 5 mps 763 mmHg 59%
    20:00 +19°C° 0 mm 4 mps 764 mmHg 66%
    21:00 +19°C° 0 mm 4 mps 764 mmHg 72%
    22:00 +18°C° 0 mm 4 mps 765 mmHg 78%
    23:00 +18°C° 0 mm 4 mps 765 mmHg 78%

    Tomorrow, 27 March, Wednesday

    Time Temperature Precipitation Wind Pressure Humidity
    00:00 +18°C° 0 mm 4 mps 765 mmHg 77%
    01:00 +18°C° 0 mm 4 mps 765 mmHg 76%
    02:00 +18°C° 0 mm 3 mps 765 mmHg 76%
    03:00 +17°C° 0 mm 3 mps 765 mmHg 75%
    04:00 +17°C° 0 mm 3 mps 765 mmHg 75%
    05:00 +18°C° 0 mm 3 mps 766 mmHg 74%
    06:00 +18°C° 0 mm 3 mps 766 mmHg 73%
    07:00 +19°C° 0 mm 3 mps 767 mmHg 72%
    08:00 +20°C° 0 mm 3 mps 767 mmHg 66%
    09:00 +22°C° 0 mm 4 mps 767 mmHg 61%
    10:00 +23°C° 0 mm 4 mps 767 mmHg 55%
    11:00 +23°C° 0 mm 4 mps 767 mmHg 54%
    12:00 +25°C° 0 mm 4 mps 767 mmHg 53%
    13:00 +25°C° 0 mm 4 mps 766 mmHg 52%
    14:00 +23°C° 0 mm 4 mps 766 mmHg 54%
    15:00 +23°C° 0 mm 4 mps 766 mmHg 56%
    16:00 +22°C° 0 mm 4 mps 765 mmHg 58%
    17:00 +21°C° 0 mm 3 mps 766 mmHg 62%
    18:00 +20°C° 0 mm 3 mps 766 mmHg 66%
    19:00 +19°C° 0 mm 2 mps 766 mmHg 71%
    20:00 +18°C° 0 mm 2 mps 766 mmHg 73%
    21:00 +18°C° 0 mm 2 mps 767 mmHg 75%
    22:00 +18°C° 0 mm 1 mps 767 mmHg 77%
    23:00 +18°C° 0 mm 1 mps 766 mmHg 79%

    Day after tomorrow, 28 March, Thursday

    Time Temperature Precipitation Wind Pressure Humidity
    00:00 +16°C° 0 mm 1 mps 766 mmHg 81%
    01:00 +15°C° 0 mm 0 mps 766 mmHg 83%
    02:00 +15°C° 0 mm 0 mps 765 mmHg 84%
    03:00 +15°C° 0 mm 1 mps 765 mmHg 86%
    04:00 +15°C° 0 mm 1 mps 765 mmHg 87%
    05:00 +16°C° 0 mm 1 mps 765 mmHg 85%
    06:00 +16°C° 0 mm 1 mps 765 mmHg 82%
    07:00 +18°C° 0 mm 1 mps 765 mmHg 80%
    08:00 +20°C° 0 mm 1 mps 765 mmHg 74%
    09:00 +22°C° 0 mm 1 mps 765 mmHg 67%
    10:00 +25°C° 0 mm 1 mps 765 mmHg 61%
    11:00 +25°C° 0.1 mm 2 mps 764 mmHg 59%
    12:00 +26°C° 0.1 mm 2 mps 763 mmHg 58%
    13:00 +27°C° 0.1 mm 3 mps 763 mmHg 57%
    14:00 +27°C° 0 mm 3 mps 762 mmHg 58%
    15:00 +26°C° 0 mm 3 mps 762 mmHg 59%
    16:00 +26°C° 0 mm 4 mps 761 mmHg 60%
    17:00 +23°C° 0 mm 4 mps 761 mmHg 68%
    18:00 +22°C° 0 mm 3 mps 762 mmHg 76%
    19:00 +20°C° 0 mm 3 mps 762 mmHg 84%
    20:00 +20°C° 0 mm 3 mps 762 mmHg 85%
    21:00 +19°C° 0 mm 3 mps 762 mmHg 86%
    22:00 +19°C° 0 mm 3 mps 762 mmHg 87%
    23:00 +18°C° 0 mm 3 mps 762 mmHg 88%

    29 March, Friday

    Time Temperature Precipitation Wind Pressure Humidity
    00:00 +18°C° 0 mm 3 mps 761 mmHg 90%
    01:00 +17°C° 0 mm 3 mps 761 mmHg 91%
    02:00 +17°C° 0 mm 2 mps 760 mmHg 93%
    03:00 +17°C° 0 mm 2 mps 760 mmHg 94%
    04:00 +16°C° 0 mm 2 mps 759 mmHg 95%
    05:00 +17°C° 0 mm 2 mps 759 mmHg 93%
    06:00 +17°C° 0 mm 2 mps 760 mmHg 91%
    07:00 +17°C° 0 mm 2 mps 760 mmHg 89%
    08:00 +20°C° 0 mm 2 mps 759 mmHg 77%
    09:00 +24°C° 0 mm 2 mps 759 mmHg 65%
    10:00 +27°C° 0 mm 2 mps 759 mmHg 53%
    11:00 +28°C° 0 mm 2 mps 758 mmHg 51%
    12:00 +29°C° 0 mm 2 mps 757 mmHg 49%
    13:00 +30°C° 0 mm 2 mps 756 mmHg 46%
    14:00 +30°C° 0 mm 3 mps 755 mmHg 47%
    15:00 +30°C° 0 mm 3 mps 755 mmHg 48%
    16:00 +30°C° 0 mm 3 mps 754 mmHg 49%
    17:00 +28°C° 0 mm 4 mps 754 mmHg 59%
    18:00 +26°C° 0 mm 4 mps 754 mmHg 69%
    19:00 +23°C° 0 mm 4 mps 754 mmHg 79%
    20:00 +23°C° 0.1 mm 4 mps 755 mmHg 80%
    21:00 +23°C° 0.1 mm 4 mps 755 mmHg 82%
    22:00 +22°C° 0.1 mm 4 mps 755 mmHg 83%
    23:00 +22°C° 0.5 mm 4 mps 754 mmHg 87%

    30 March, Saturday

    Time Temperature Precipitation Wind Pressure Humidity
    00:00 +21°C° 0.5 mm 4 mps 754 mmHg 91%
    01:00 +20°C° 0.5 mm 4 mps 754 mmHg 96%
    02:00 +20°C° 0.7 mm 4 mps 754 mmHg 96%
    03:00 +20°C° 0.7 mm 4 mps 754 mmHg 96%
    04:00 +20°C° 0.7 mm 4 mps 754 mmHg 97%
    05:00 +19°C° 0.4 mm 4 mps 754 mmHg 95%
    06:00 +19°C° 0.4 mm 5 mps 755 mmHg 93%
    07:00 +17°C° 0.4 mm 5 mps 755 mmHg 92%
    08:00 +20°C° 0 mm 6 mps 755 mmHg 83%
    09:00 +21°C° 0 mm 6 mps 756 mmHg 74%
    10:00 +23°C° 0 mm 6 mps 756 mmHg 65%
    11:00 +22°C° 0.3 mm 7 mps 756 mmHg 68%
    12:00 +22°C° 0.3 mm 7 mps 756 mmHg 72%
    13:00 +21°C° 0.3 mm 8 mps 756 mmHg 76%
    14:00 +21°C° 0.1 mm 8 mps 757 mmHg 74%
    15:00 +21°C° 0.1 mm 8 mps 757 mmHg 71%
    16:00 +20°C° 0.1 mm 8 mps 757 mmHg 68%
    17:00 +20°C° 0 mm 8 mps 758 mmHg 69%
    18:00 +18°C° 0 mm 8 mps 759 mmHg 70%
    19:00 +18°C° 0 mm 8 mps 760 mmHg 70%
    20:00 +17°C° 0 mm 7 mps 760 mmHg 69%
    21:00 +17°C° 0 mm 7 mps 761 mmHg 67%
    22:00 +17°C° 0 mm 7 mps 761 mmHg 65%
    23:00 +17°C° 0 mm 6 mps 761 mmHg 67%

    31 March, Sunday

    Time Temperature Precipitation Wind Pressure Humidity
    00:00 +17°C° 0 mm 6 mps 761 mmHg 69%
    01:00 +16°C° 0 mm 6 mps 761 mmHg 71%
    02:00 +15°C° 0 mm 5 mps 761 mmHg 73%
    03:00 +15°C° 0 mm 5 mps 761 mmHg 75%
    04:00 +14°C° 0 mm 5 mps 761 mmHg 77%
    05:00 +14°C° 0 mm 5 mps 762 mmHg 77%
    06:00 +14°C° 0 mm 4 mps 762 mmHg 76%
    07:00 +13°C° 0 mm 4 mps 763 mmHg 76%
    08:00 +17°C° 0 mm 4 mps 763 mmHg 69%
    09:00 +19°C° 0 mm 4 mps 763 mmHg 61%
    10:00 +21°C° 0 mm 3 mps 763 mmHg 54%
    11:00 +22°C° 0 mm 3 mps 763 mmHg 49%
    12:00 +24°C° 0 mm 3 mps 762 mmHg 44%
    13:00 +25°C° 0 mm 3 mps 762 mmHg 39%
    14:00 +25°C° 0 mm 3 mps 761 mmHg 41%
    15:00 +24°C° 0 mm 3 mps 761 mmHg 43%
    16:00 +24°C° 0 mm 3 mps 761 mmHg 45%
    17:00 +21°C° 0 mm 3 mps 761 mmHg 54%
    18:00 +19°C° 0 mm 2 mps 762 mmHg 62%
    19:00 +17°C° 0 mm 2 mps 762 mmHg 70%
    20:00 +16°C° 0 mm 2 mps 763 mmHg 72%
    21:00 +16°C° 0 mm 1 mps 763 mmHg 74%
    22:00 +15°C° 0 mm 1 mps 764 mmHg 76%
    23:00 +15°C° 0 mm 1 mps 764 mmHg 78%
    Show more